Location: ?????????
(54.7630°N, 39.4991°E)
Time: 21:08:48
(UTC+00:00)

Geosat - Pass Details

Date: 14 April 2026
Orbit: 758 x 760 km, 108.0° (Epoch: 11 May)

Event Time Altitude Azimuth Distance (km) Brightness Sun altitude
Rises 17:47:40 0° 34° (NNE) 3,233 7.3 -11.6°
Reaches altitude 10° 17:49:58 10° 37° (NE) 2,303 6.5 -11.9°
Maximum altitude 17:54:58 65° 120° (ESE) 836 3.9 -12.4°
Drops below altitude 10° 17:59:55 10° 202° (SSW) 2,288 6.3 -13.0°
Sets 18:02:13 0° 206° (SSW) 3,210 7.1 -13.3°
